EW1728 Weather Reports


time (UTC)temp
F
wind
direction
speed
knots
gust
knots
rain 1hr
in
rain 24hr
in
rain mn
in
humidity
%
barometer
mb
20260510184116 82 342 0.0 0.9 0.00 0.00 0.00 54 1014.2
20260510183056 82 342 0.0 1.7 0.00 0.00 0.00 53 1014.2
20260510183052 83 344 0.0 1.7 0.00 0.00 0.00 49 1014.2
20260510182053 82 222 0.0 0.9 0.00 0.00 0.00 52 1014.2
20260510181550 81 13 0.0 1.7 0.00 0.00 0.00 57 1014.2
20260510181054 81 91 2.6 6.1 0.00 0.00 0.00 52 1014.3
20260510181050 80 82 1.7 5.2 0.00 0.00 0.00 54 1014.2
20260510180048 82 94 1.7 6.1 0.00 0.00 0.00 50 1014.4
20260510175548 84 89 0.0 3.5 0.00 0.00 0.00 47 1014.5
20260510175050 84 45 0.0 3.5 0.00 0.00 0.00 50 1014.4
20260510175046 84 134 0.0 1.7 0.00 0.00 0.00 47 1014.4
20260510174044 84 139 0.0 1.7 0.00 0.00 0.00 51 1014.5
20260510173542 84 345 0.0 1.7 0.00 0.00 0.00 50 1014.4
20260510173028 85 3 0.0 1.7 0.00 0.00 0.00 53 1014.5
20260510172527 84 3 0.9 2.6 0.00 0.00 0.00 52 1014.5
20260510172022 84 81 0.9 2.6 0.00 0.00 0.00 50 1014.5
20260510171526 84 100 0.9 2.6 0.00 0.00 0.00 47 1014.6
20260510171522 83 347 0.9 2.6 0.00 0.00 0.00 48 1014.5
20260510170520 84 103 0.0 2.6 0.00 0.00 0.00 49 1014.6
20260510170020 83 236 0.0 1.7 0.00 0.00 0.00 55 1014.6
20260510165518 83 274 0.0 1.7 0.00 0.00 0.00 51 1014.5
20260510165002 82 125 0.9 1.7 0.00 0.00 0.00 52 1014.6
20260510164502 81 88 0.9 2.6 0.00 0.00 0.00 52 1014.6
20260510164000 81 260 0.9 2.6 0.00 0.00 0.00 52 1014.6
20260510163452 80 283 0.9 2.6 0.00 0.00 0.00 56 1014.7
20260510162952 80 25 0.9 1.7 0.00 0.00 0.00 57 1014.8
20260510162452 79 91 0.9 3.5 0.00 0.00 0.00 57 1014.7
20260510161952 79 78 0.9 3.5 0.00 0.00 0.00 57 1014.7
20260510161442 78 79 0.9 2.6 0.00 0.00 0.00 56 1014.7
20260510160938 79 99 0.0 1.7 0.00 0.00 0.00 60 1014.8
20260510160929 78 359 0.9 3.5 0.00 0.00 0.00 57 1014.8
20260510155928 78 333 0.9 3.5 0.00 0.00 0.00 63 1014.9
20260510155428 78 51 0.9 3.5 0.00 0.00 0.00 60 1014.9
20260510154928 77 83 0.9 3.5 0.00 0.00 0.00 61 1015.0
20260510154427 77 223 0.9 2.6 0.00 0.00 0.00 62 1015.1
20260510153929 77 103 0.9 4.3 0.00 0.00 0.00 62 1015.1
20260510153406 76 226 0.9 4.3 0.00 0.00 0.00 64 1015.1
20260510152910 76 20 0.9 3.5 0.00 0.00 0.00 65 1015.0
20260510152906 76 67 0.0 1.7 0.00 0.00 0.00 63 1015.1
20260510151858 75 18 1.7 4.3 0.00 0.00 0.00 68 1014.9
20260510151354 75 68 1.7 5.2 0.00 0.00 0.00 68 1015.0
20260510150855 74 67 1.7 5.2 0.00 0.00 0.00 74 1014.9
20260510150338 74 71 1.7 5.2 0.00 0.00 0.00 71 1014.9
20260510145836 74 96 0.9 4.3 0.00 0.00 0.00 72 1014.8
20260510145334 74 70 0.0 2.6 0.00 0.00 0.00 74 1014.9
20260510144821 73 42 0.9 3.5 0.00 0.00 0.00 74 1014.8
20260510144322 73 319 0.9 3.5 0.00 0.00 0.00 76 1014.8
20260510143823 73 37 0.9 4.3 0.00 0.00 0.00 77 1014.8
20260510143322 72 44 0.9 4.3 0.00 0.00 0.00 77 1014.8
20260510142818 72 96 0.0 2.6 0.00 0.00 0.00 81 1014.8
20260510142322 71 340 0.9 3.5 0.00 0.00 0.00 80 1014.7
20260510142318 71 64 0.0 0.9 0.00 0.00 0.00 81 1014.7
20260510141310 71 338 0.9 3.5 0.00 0.00 0.00 81 1014.9
20260510140811 71 32 0.0 3.5 0.00 0.00 0.00 83 1014.9
20260510140306 70 12 0.0 0.9 0.00 0.00 0.00 86 1014.9
20260510135806 70 15 0.0 0.9 0.00 0.00 0.00 86 1014.9
20260510135306 69 71 0.0 1.7 0.00 0.00 0.00 87 1014.8
20260510134752 69 71 0.0 1.7 0.00 0.00 0.00 87 1014.8
20260510134744 69 223 0.0 0.9 0.00 0.00 0.00 88 1014.7
20260510133743 68 341 0.0 0.0 0.00 0.00 0.00 89 1014.7
20260510133236 68 103 0.0 0.0 0.00 0.00 0.00 89 1014.6
20260510132736 67 230 0.0 0.0 0.00 0.00 0.00 90 1014.6
20260510132234 67 111 0.0 0.0 0.00 0.00 0.00 92 1014.5
20260510131730 66 37 0.0 0.0 0.00 0.00 0.00 95 1014.5
20260510131205 66 37 0.0 0.0 0.00 0.00 0.00 96 1014.4
20260510130646 65 37 0.0 0.0 0.00 0.00 0.00 96 1014.4
20260510130149 65 94 0.0 0.0 0.00 0.00 0.00 98 1014.3
20260510130145 65 112 0.0 0.0 0.00 0.00 0.00 97 1014.4
20260510125140 64 92 0.0 0.0 0.00 0.00 0.00 99 1014.2
20260510124600 64 92 0.0 0.0 0.00 0.00 0.00 99 1014.2
20260510124050 64 92 0.0 0.0 0.00 0.00 0.00 99 1014.1
20260510123532 64 92 0.0 0.0 0.00 0.00 0.00 100 1014.1
20260510123030 63 51 0.0 0.0 0.00 0.00 0.00 100 1014.0
20260510122534 63 51 0.0 0.0 0.00 0.00 0.00 100 1014.0
20260510122530 63 51 0.0 0.0 0.00 0.00 0.00 100 1014.0
20260510121603 62 51 0.0 0.0 0.00 0.00 0.00 100 1014.0
20260510121529 62 51 0.0 0.0 0.00 0.00 0.00 100 1014.0
20260510121500 62 51 0.0 0.0 0.00 0.00 0.00 100 1014.0
20260510115958 62 51 0.0 0.0 0.00 0.00 0.00 100 1013.9
20260510115456 61 51 0.0 0.0 0.00 0.00 0.00 100 1013.9
20260510115434 61 51 0.0 0.0 0.00 0.00 0.00 100 1013.8
20260510114421 61 51 0.0 0.0 0.00 0.00 0.00 100 1013.8
20260510113919 61 51 0.0 0.0 0.00 0.00 0.00 100 1013.6
20260510113912 61 51 0.0 0.0 0.00 0.00 0.00 100 1013.5
20260510112903 61 51 0.0 0.0 0.00 0.00 0.00 100 1013.5
20260510112408 60 51 0.0 0.0 0.00 0.00 0.00 100 1013.3
20260510112404 60 51 0.0 0.0 0.00 0.00 0.00 100 1013.3
20260510111327 60 51 0.0 0.0 0.00 0.00 0.00 100 1013.3
20260510110829 60 51 0.0 0.0 0.00 0.00 0.00 100 1013.3
20260510110825 60 51 0.0 0.0 0.00 0.00 0.00 100 1013.1
20260510110427 60 51 0.0 0.0 0.00 0.00 0.00 100 1013.2
20260510105927 60 51 0.0 0.0 0.00 0.00 0.00 100 1013.0
20260510104754 60 51 0.0 0.0 0.00 0.00 0.00 100 1013.0
20260510104237 60 51 0.0 0.0 0.00 0.00 0.00 100 1012.8
20260510103729 60 51 0.0 0.0 0.00 0.00 0.00 100 1012.7
20260510103201 60 51 0.0 0.0 0.00 0.00 0.00 100 1012.6
20260510102637 60 51 0.0 0.0 0.00 0.00 0.00 100 1012.5
20260510102138 60 51 0.0 0.0 0.00 0.00 0.00 100 1012.4
20260510102134 60 51 0.0 0.0 0.00 0.00 0.00 100 1012.5
20260510101126 60 51 0.0 0.0 0.00 0.00 0.00 100 1012.3
20260510100530 60 51 0.0 0.0 0.00 0.00 0.00 100 1012.3
20260510100029 60 51 0.0 0.0 0.00 0.00 0.00 100 1012.3
20260510100024 60 51 0.0 0.0 0.00 0.00 0.00 99 1012.1
20260510095024 60 51 0.0 0.0 0.00 0.00 0.00 99 1012.0
20260510094524 60 51 0.0 0.0 0.00 0.00 0.00 99 1012.0
20260510094520 60 51 0.0 0.0 0.00 0.00 0.00 99 1012.0
20260510093955 60 51 0.0 0.0 0.00 0.00 0.00 99 1012.0
20260510092953 60 51 0.0 0.0 0.00 0.00 0.00 99 1011.9
20260510092432 60 51 0.0 0.0 0.00 0.00 0.00 99 1011.9
20260510091927 60 51 0.0 0.0 0.00 0.00 0.00 99 1011.8
20260510091425 60 51 0.0 0.0 0.00 0.00 0.00 99 1011.7
20260510090924 60 51 0.0 0.0 0.00 0.00 0.00 99 1011.6
20260510090347 60 51 0.0 0.0 0.00 0.00 0.00 99 1011.6
20260510085834 60 51 0.0 0.0 0.00 0.00 0.00 99 1011.5
20260510085333 60 51 0.0 0.0 0.00 0.00 0.00 99 1011.3
20260510084833 60 51 0.0 0.0 0.00 0.00 0.00 99 1011.3
20260510084334 60 51 0.0 0.0 0.00 0.00 0.00 100 1011.2
20260510083825 60 51 0.0 0.0 0.00 0.00 0.00 100 1011.2
20260510083808 60 51 0.0 0.0 0.00 0.00 0.00 99 1011.3
20260510082757 60 51 0.0 0.0 0.00 0.00 0.00 99 1011.3
20260510082257 60 51 0.0 0.0 0.00 0.00 0.00 99 1011.3
20260510081758 60 51 0.0 0.0 0.00 0.00 0.00 99 1011.3
20260510081233 60 51 0.0 0.0 0.00 0.00 0.00 99 1011.3
20260510080733 60 51 0.0 0.0 0.00 0.00 0.00 99 1011.2
20260510080230 60 51 0.0 0.0 0.00 0.00 0.00 99 1011.2
20260510080225 60 51 0.0 0.0 0.00 0.00 0.00 99 1011.3
20260510075156 60 51 0.0 0.0 0.00 0.00 0.00 99 1011.1
20260510074630 60 51 0.0 0.0 0.00 0.00 0.00 99 1011.1
20260510074021 60 51 0.0 0.0 0.00 0.00 0.00 99 1011.1
20260510073521 60 51 0.0 0.0 0.00 0.00 0.00 99 1011.1
20260510073023 61 51 0.0 0.0 0.00 0.00 0.00 99 1011.1
20260510073019 61 51 0.0 0.0 0.00 0.00 0.00 99 1011.1
20260510072011 61 51 0.0 0.0 0.00 0.00 0.00 99 1011.1
20260510071452 61 51 0.0 0.0 0.00 0.00 0.00 99 1011.0
20260510070931 61 51 0.0 0.0 0.00 0.00 0.00 99 1011.0
20260510070927 60 51 0.0 0.0 0.00 0.00 0.00 99 1011.1
20260510065927 60 51 0.0 0.0 0.00 0.00 0.00 99 1011.2
20260510065427 61 51 0.0 0.0 0.00 0.00 0.00 99 1011.2
20260510064835 61 51 0.0 0.0 0.00 0.00 0.00 99 1011.2
20260510064335 61 51 0.0 0.0 0.00 0.00 0.00 99 1011.1
20260510063831 61 51 0.0 0.0 0.00 0.00 0.00 99 1011.0
20260510063327 61 51 0.0 0.0 0.00 0.00 0.00 99 1011.0
20260510062827 61 51 0.0 0.0 0.00 0.00 0.00 99 1010.9
20260510062325 61 51 0.0 0.0 0.00 0.00 0.00 99 1010.9
20260510061740 61 51 0.0 0.0 0.00 0.00 0.00 99 1010.9
20260510061227 61 51 0.0 0.0 0.00 0.00 0.00 99 1010.9
20260510060723 61 51 0.0 0.0 0.00 0.00 0.00 99 1011.0
20260510060707 61 51 0.0 0.0 0.00 0.00 0.00 99 1011.0
20260510055655 61 51 0.0 0.0 0.00 0.00 0.00 99 1011.1
20260510055155 61 51 0.0 0.0 0.00 0.00 0.00 99 1011.2
20260510054629 61 51 0.0 0.0 0.00 0.00 0.00 99 1011.2
20260510054045 61 51 0.0 0.0 0.00 0.00 0.00 99 1011.2
20260510053525 61 51 0.0 0.0 0.00 0.00 0.00 99 1011.3
20260510053521 61 51 0.0 0.0 0.00 0.00 0.00 98 1011.4
20260510052455 61 51 0.0 0.0 0.00 0.00 0.00 99 1011.5
20260510051948 61 51 0.0 0.0 0.00 0.00 0.00 98 1011.6
20260510051437 61 51 0.0 0.0 0.00 0.00 0.00 98 1011.6
20260510051429 62 51 0.0 0.0 0.00 0.00 0.00 98 1011.6
20260510050839 62 51 0.0 0.0 0.00 0.00 0.00 98 1011.8
20260510050443 62 51 0.0 0.0 0.00 0.00 0.00 98 1011.5
20260510045942 62 51 0.0 0.0 0.00 0.00 0.00 98 1011.7
20260510045440 62 51 0.0 0.0 0.00 0.00 0.00 98 1011.7
20260510044255 62 51 0.0 0.0 0.00 0.00 0.00 98 1011.7
20260510043755 62 51 0.0 0.0 0.00 0.00 0.00 98 1011.7
20260510043255 62 51 0.0 0.0 0.00 0.00 0.00 98 1011.7
20260510042737 62 51 0.0 0.0 0.00 0.00 0.00 98 1011.6
20260510042228 62 51 0.0 0.0 0.00 0.00 0.00 98 1011.6
20260510042137 62 51 0.0 0.0 0.00 0.00 0.00 98 1011.5
20260510041741 62 51 0.0 0.0 0.00 0.00 0.00 98 1011.6
20260510040559 62 51 0.0 0.0 0.00 0.00 0.00 98 1011.6
20260510040031 62 51 0.0 0.0 0.00 0.00 0.00 98 1011.5
20260510035531 62 51 0.0 0.0 0.00 0.00 0.00 98 1011.4
20260510035023 62 51 0.0 0.0 0.00 0.00 0.00 98 1011.3
20260510034515 62 51 0.0 0.0 0.00 0.00 0.00 98 1011.3
20260510034511 62 51 0.0 0.0 0.00 0.00 0.00 98 1011.3
20260510033925 62 51 0.0 0.0 0.00 0.00 0.00 97 1011.3
20260510033528 62 51 0.0 0.0 0.00 0.00 0.00 97 1011.3
20260510032421 62 51 0.0 0.0 0.00 0.00 0.00 97 1011.3
20260510031851 63 51 0.0 0.0 0.00 0.00 0.00 97 1011.2
20260510031349 63 51 0.0 0.0 0.00 0.00 0.00 97 1011.2
20260510030846 62 51 0.0 0.0 0.00 0.00 0.00 97 1011.2
20260510030341 63 51 0.0 0.0 0.00 0.00 0.00 97 1011.1
20260510025837 63 51 0.0 0.0 0.00 0.00 0.00 97 1011.1
20260510025829 63 51 0.0 0.0 0.00 0.00 0.00 96 1011.2
20260510024813 63 51 0.0 0.0 0.00 0.00 0.00 96 1011.1
20260510024305 63 51 0.0 0.0 0.00 0.00 0.00 96 1011.1
20260510023805 63 51 0.0 0.0 0.00 0.00 0.00 96 1011.1
20260510023249 63 51 0.0 0.0 0.00 0.00 0.00 96 1011.1
20260510022742 64 51 0.0 0.0 0.00 0.00 0.00 95 1011.1
20260510022243 64 51 0.0 0.0 0.00 0.00 0.00 96 1011.1
20260510021725 64 51 0.0 0.0 0.00 0.00 0.00 96 1011.1
20260510021225 64 51 0.0 0.0 0.00 0.00 0.00 95 1011.1
20260510020703 64 51 0.0 0.0 0.00 0.00 0.00 95 1010.9
20260510020203 64 51 0.0 0.0 0.00 0.00 0.00 95 1011.0
20260510015635 65 51 0.0 0.0 0.00 0.00 0.00 95 1011.1
20260510015133 65 51 0.0 0.0 0.00 0.00 0.00 94 1011.0
20260510014628 65 51 0.0 0.0 0.00 0.00 0.00 94 1010.9
20260510014103 65 51 0.0 0.0 0.00 0.00 0.00 94 1010.8
20260510013537 65 51 0.0 0.0 0.00 0.00 0.00 93 1010.6
20260510013016 65 51 0.0 0.0 0.00 0.00 0.00 93 1010.6
20260510012515 65 51 0.0 0.0 0.00 0.00 0.00 93 1010.5
20260510011927 66 51 0.0 0.0 0.00 0.00 0.00 93 1010.5
20260510011421 66 51 0.0 0.0 0.00 0.00 0.00 93 1010.4
20260510010921 66 51 0.0 0.0 0.00 0.00 0.00 93 1010.4
20260510010401 66 51 0.0 0.0 0.00 0.00 0.00 92 1010.4
20260510005843 66 51 0.0 0.0 0.00 0.00 0.00 92 1010.4
20260510005331 67 51 0.0 0.0 0.00 0.00 0.00 91 1010.3
20260510004829 67 51 0.0 0.0 0.00 0.00 0.00 90 1010.2
20260510004314 67 51 0.0 0.0 0.00 0.00 0.00 90 1010.2
20260510003737 67 51 0.0 0.0 0.00 0.00 0.00 90 1010.3
20260510003235 67 51 0.0 0.0 0.00 0.00 0.00 90 1010.2
20260510002733 68 51 0.0 0.0 0.00 0.00 0.00 89 1010.2
20260510002726 68 51 0.0 0.0 0.00 0.00 0.00 89 1010.3
20260510001726 68 51 0.0 0.0 0.00 0.00 0.00 88 1010.3
20260510001216 69 51 0.0 0.0 0.00 0.00 0.00 88 1010.4
20260510001212 69 51 0.0 0.0 0.00 0.00 0.00 88 1010.3
20260510000144 69 51 0.0 0.0 0.00 0.00 0.00 87 1010.2
20260509235641 69 51 0.0 0.0 0.00 0.00 0.00 87 1010.2
20260509235032 69 51 0.0 0.0 0.00 0.00 0.00 87 1010.2
20260509234531 70 51 0.0 0.0 0.00 0.00 0.00 86 1010.2
20260509234030 70 51 0.0 0.0 0.00 0.00 0.00 86 1010.1
20260509233531 70 51 0.0 0.0 0.00 0.00 0.00 85 1009.9
20260509233031 71 51 0.0 0.0 0.00 0.00 0.00 85 1009.7
20260509232529 71 51 0.0 0.0 0.00 0.00 0.00 84 1009.6
20260509232525 71 51 0.0 0.0 0.00 0.00 0.00 84 1009.7
20260509231525 71 51 0.0 0.0 0.00 0.00 0.00 84 1009.7
20260509231019 71 51 0.0 0.0 0.00 0.00 0.00 83 1009.6
20260509230519 72 51 0.0 0.0 0.00 0.00 0.00 83 1009.6
20260509230017 72 51 0.0 0.0 0.00 0.00 0.00 83 1009.7
20260509225515 72 51 0.0 0.0 0.00 0.00 0.00 82 1009.6
20260509225015 73 51 0.0 0.0 0.00 0.00 0.00 82 1009.4
20260509224514 73 51 0.0 0.0 0.00 0.00 0.00 82 1009.4
20260509223949 73 51 0.0 0.0 0.00 0.00 0.00 82 1009.5
20260509223444 73 51 0.0 0.0 0.00 0.00 0.00 82 1009.7
20260509222929 73 51 0.0 0.0 0.00 0.00 0.00 82 1009.6
20260509222429 73 51 0.0 0.0 0.00 0.00 0.00 81 1009.6
20260509221926 73 51 0.0 0.0 0.00 0.00 0.00 82 1009.7
20260509221421 73 51 0.0 0.0 0.00 0.00 0.00 82 1009.8
20260509220917 73 51 0.0 0.0 0.00 0.00 0.00 81 1009.8
20260509220828 73 51 0.0 0.0 0.00 0.00 0.00 81 1009.8
20260509215829 73 51 0.0 0.9 0.00 0.00 0.00 81 1009.6
20260509215825 73 51 0.0 0.9 0.00 0.00 0.00 80 1009.7
20260509214823 73 51 0.0 0.0 0.00 0.00 0.00 80 1009.7
20260509214314 73 51 0.0 0.9 0.00 0.00 0.00 80 1009.5
20260509213800 73 51 0.0 0.9 0.00 0.00 0.00 80 1009.4
20260509213747 73 35 0.0 0.9 0.00 0.00 0.00 82 1009.5
20260509212738 73 35 0.0 0.9 0.00 0.00 0.00 82 1009.6
20260509212236 73 35 0.0 0.0 0.00 0.00 0.00 81 1009.5
20260509211729 72 35 0.0 0.0 0.00 0.00 0.00 81 1009.5
20260509211228 72 35 0.0 0.9 0.00 0.00 0.00 81 1009.5
20260509210701 73 35 0.0 0.9 0.00 0.00 0.00 80 1009.5
20260509210133 73 35 0.0 0.9 0.00 0.00 0.00 81 1009.6
20260509205554 73 35 0.0 1.7 0.00 0.00 0.00 81 1009.3
20260509205543 73 35 0.0 2.6 0.00 0.00 0.00 80 1009.3
20260509204533 73 36 0.0 2.6 0.00 0.00 0.00 79 1009.3
20260509204030 73 156 0.0 0.0 0.00 0.00 0.00 80 1009.5
20260509203534 72 131 0.0 0.9 0.00 0.00 0.00 80 1009.3
20260509203530 73 131 0.0 0.0 0.00 0.00 0.00 81 1009.4
20260509202530 72 131 0.0 0.9 0.00 0.00 0.00 81 1009.3
20260509202030 71 41 0.0 0.9 0.00 0.00 0.00 81 1009.6
20260509201529 71 41 0.0 0.9 0.00 0.00 0.00 81 1009.6
20260509201026 71 142 0.0 0.9 0.00 0.00 0.00 81 1009.5
20260509200527 71 124 0.0 0.9 0.00 0.00 0.00 80 1009.6
20260509200523 71 124 0.0 0.9 0.00 0.00 0.00 79 1009.8
20260509195518 72 124 0.0 0.9 0.00 0.00 0.00 79 1009.8
20260509195016 72 124 0.0 0.9 0.00 0.00 0.00 79 1009.8
20260509194459 73 124 0.0 0.9 0.00 0.00 0.00 77 1009.8
20260509193954 73 124 0.0 0.9 0.00 0.00 0.00 76 1009.8
20260509193436 74 124 0.0 0.9 0.00 0.00 0.00 75 1009.9
20260509192930 74 124 0.0 0.9 0.00 0.00 0.00 73 1009.9
20260509192430 75 319 0.0 3.5 0.00 0.00 0.00 73 1010.0
20260509191931 75 36 0.0 3.5 0.00 0.00 0.00 71 1010.0
20260509191430 76 202 0.0 0.9 0.00 0.00 0.00 73 1010.1
20260509190929 75 222 0.0 0.0 0.00 0.00 0.00 71 1010.0
20260509190423 75 221 0.0 0.0 0.00 0.00 0.00 71 1010.0
20260509190417 74 248 0.0 0.0 0.00 0.00 0.00 72 1010.1
20260509185408 74 158 0.0 0.9 0.00 0.00 0.00 73 1010.1
20260509184856 73 129 0.0 0.9 0.00 0.00 0.00 74 1010.2
20260509184338 74 129 0.0 1.7 0.00 0.00 0.00 72 1010.3